Regional Weather Roundup
Issued by NWS

Home | Current Version | Previous Version | Text Only | Print | Product List | Glossary Off
Versions: 1 2 3 4 5 6 7 8 9 10 11 12 13 14 15 16 17 18 19 20 21 22 23 24 25 26 27 28 29 30 31 32 33 34 35 36 37 38 39 40 41 42 43 44 45 46 47 48 49 50

000
ASUS43 KLSX 271407
RWRMO

WEATHER SUMMARY FOR MISSOURI
NATIONAL WEATHER SERVICE SPRINGFIELD MO
800 AM CST FRI FEB 27 2015

NOTE: "FAIR" INDICATES FEW OR NO CLOUDS BELOW 12,000 FEET WITH NO
       SIGNIFICANT WEATHER AND/OR OBSTRUCTIONS TO VISIBILITY.
       CURRENT SKY AND/OR WEATHER CONDITIONS ARE NOT AVAILABLE FOR
       CHILLICOTHE AND FARMINGTON.

MOZ001>031-035>038-043-044-053-054-271500-
...NORTHERN AND WESTERN MISSOURI...

CITY           SKY/WX    TMP DP  RH WIND       PRES   REMARKS
KANSAS CTY INT PTSUNNY    4  -2  76 N5        30.62R WCI  -5
KANSAS C DTWN  MOSUNNY    7  -2  66 CALM      30.66R
LEE`S SUMMIT   SUNNY      6  -2  69 NE5       30.63R WCI  -3
ST JOSEPH      SUNNY      3  -2  79 CALM      30.66R
CHILLICOTHE      N/A      3  -4  72 CALM      30.67R
KIRKSVILLE     SUNNY      0  -5  79 NW5       30.64R WCI -10

$$
MOZ066>068-077>081-088>096-101>105-271500-
...SOUTHWEST MISSOURI...

CITY           SKY/WX    TMP DP  RH WIND       PRES   REMARKS
SPRINGFIELD    SUNNY      8   0  69 NE10      30.54F WCI  -6
JOPLIN         MOSUNNY   11   2  67 NE8       30.60R WCI  -1

$$
MOZ032>034-039>042-045>050-055>058-069>072-271500-
...CENTRAL MISSOURI...

CITY           SKY/WX    TMP DP  RH WIND       PRES   REMARKS
COLUMBIA       SUNNY      5  -2  72 W3        30.65R
JEFFERSON CITY SUNNY      6  -2  69 CALM      30.70R
ROLLA          SUNNY      5  -5  63 N8        30.59R WCI  -8
SEDALIA        SUNNY      6  -1  73 NE6       30.65R WCI  -4
WHITEMAN AFB   MOSUNNY    5  -2  73 NE5       30.63R WCI  -4
WARRENSBURG    MOSUNNY    5   0  78 CALM      30.66R
OSAGE BEACH    SUNNY      7   0  72 E8        30.62S WCI  -6

$$
MOZ051-052-059>065-271500-
...EAST CENTRAL MISSOURI...

CITY           SKY/WX    TMP DP  RH WIND       PRES   REMARKS
ST LOUIS INTL  MOSUNNY    6  -4  63 NW7       30.66R WCI  -6
SPIRIT OF STL  SUNNY      5  -4  66 VRB5      30.67R WCI  -4
ST CHARLES     MOSUNNY    2  -4  76 NW7       30.68R WCI -11

$$
MOZ072>076-082>087-097>100-106>115-271500-
...SOUTH CENTRAL AND SOUTHEAST MISSOURI...

CITY           SKY/WX    TMP DP  RH WIND       PRES   REMARKS
CAPE GIRARDEAU SUNNY     10   1  67 N12       30.64R WCI  -5
FARMINGTON     SUNNY      5  -2  72 N10       30.62R WCI -10
POPLAR BLUFF   SUNNY     12   0  58 N12       30.64R WCI  -2
WEST PLAINS    SUNNY      7  -2  66 N12       30.57R WCI  -8

$$



USA.gov is the U.S. government's official web portal to all federal, state and local government web resources and services.